Wind_Speed
24 18 14 11 11 7 4 3 3 7 6 10 9 13 11 12 13 15 14 14 12 11 9 8 8 9 11 12 13 13 12 11 11 10 9 9 11 13 13 15 16 16 16
20 14 10 10 9 6 1 4 5 9 10 9 3 4 7 12 8 11 13 14 13 12 11 10 11 10 9 9 9 9 9 8 8 8 8 9 10 12 13 15 16 16 16
15 15 14 11 10 8 8 5 7 8 9 4 4 6 8 9 10 10 12 13 12 13 13 12 13 13 12 11 9 8 7 6 6 5 6 7 8 9 10 11 12 14 16
16 15 13 12 12 11 5 3 7 9 10 5 2 5 8 5 11 6 9 12 13 13 13 13 12 12 12 11 10 8 7 6 5 5 5 4 5 6 7 9 10 11 12
14 14 15 14 12 10 3 4 6 6 7 1 4 6 8 3 8 7 9 12 9 12 12 11 12 12 12 11 11 9 8 7 6 5 4 3 2 2 3 4 6 9 12
11 13 14 15 12 8 5 1 1 2 4 10 7 3 3 4 9 1 8 10 7 8 8 10 11 11 12 12 11 10 9 8 7 7 7 6 5 4 2 2 1 3 6
12 13 11 14 14 6 4 6 3 4 3 7 8 3 4 6 6 2 3 10 10 7 7 4 5 7 9 11 11 9 8 7 7 7 7 7 8 7 6 5 6 4 2
13 12 13 15 11 8 5 3 3 4 7 7 9 8 9 11 6 6 5 6 6 7 9 8 7 6 5 8 10 10 8 6 6 7 7 6 6 8 8 8 8 8 7
11 11 11 10 8 7 11 5 8 5 3 7 7 8 10 6 4 3 1 2 3 6 3 6 10 7 3 6 7 7 8 7 5 6 7 7 6 5 6 7 8 9 9
10 11 9 9 8 8 10 5 7 6 5 2 1 6 4 2 4 8 9 3 4 5 3 3 2 5 10 5 7 6 7 5 4 4 5 6 6 6 6 5 5 6 6
12 10 11 8 9 6 6 5 6 7 6 4 2 2 4 7 6 7 6 9 5 3 6 1 8 3 5 3 4 5 5 4 2 2 3 5 5 6 6 5 5 4 4
12 12 7 7 10 9 6 7 7 6 5 7 7 5 2 1 5 3 4 5 5 5 7 5 6 5 3 1 2 2 3 4 2 1 2 3 4 5 5 5 4 4 4
12 12 11 9 9 9 8 9 9 8 9 8 10 8 2 3 2 4 4 4 2 2 5 5 5 6 4 3 1 1 0 1 2 2 2 3 3 2 2 3 3 4 4
10 11 10 11 9 8 9 8 9 9 10 10 10 10 10 9 5 4 8 9 5 6 2 4 1 8 5 1 2 3 3 3 2 1 1 1 1 2 2 3 4 5 6
14 9 9 10 9 7 8 7 9 9 9 8 6 9 10 14 5 5 10 10 10 8 10 12 6 8 3 5 5 5 3 4 4 3 3 4 5 4 4 5 6 8 8
14 15 10 10 11 9 9 8 9 9 6 6 5 5 5 10 7 9 10 6 7 9 15 13 9 6 5 6 4 5 6 6 5 6 7 7 7 6 7 8 9 9 9
15 15 10 8 9 11 12 8 10 11 10 8 8 5 2 2 4 9 8 10 10 11 11 13 13 6 9 7 8 7 7 7 6 7 9 10 9 9 9 10 11 12 11
14 13 12 11 11 12 11 11 11 15 12 10 10 9 7 7 7 10 6 7 10 13 13 14 12 10 9 9 10 8 7 6 9 11 11 12 13 13 12 13 14 14 14
12 12 13 12 11 12 13 13 13 15 14 13 12 12 11 10 9 9 11 10 10 12 14 13 13 15 14 12 12 12 11 9 10 15 14 15 17 17 16 17 17 16 17
13 13 13 12 12 13 13 13 13 14 14 16 14 13 12 13 12 11 10 10 12 13 14 14 13 15 15 14 14 15 15 15 14 15 16 17 18 19 19 19 19 20 19
13 12 14 13 12 12 12 13 14 14 14 15 17 17 15 15 16 16 14 15 14 15 16 17 16 16 17 15 14 19 17 20 17 16 17 18 20 20 20 19 19 21 21
13 15 16 17 17 17 15 16 18 17 16 16 16 18 18 18 16 16 16 17 18 16 18 19 19 19 19 19 18 21 21 22 22 21 24 20 22 22 23 22 22 23 23
16 20 19 19 20 21 21 22 24 24 24 22 21 19 18 18 19 20 19 19 18 19 18 19 20 19 20 21 24 24 25 26 25 25 28 28 25 24 26 26 25 26 26
18 19 21 21 22 21 23 23 25 27 28 27 25 25 23 20 20 21 21 19 18 20 21 22 22 20 22 23 27 29 28 30 30 29 30 31 28 29 29 28 26 25 29
18 18 18 19 19 18 20 20 23 26 28 27 29 30 31 27 22 23 24 23 21 21 21 24 25 25 24 25 27 30 31 32 34 33 33 34 32 33 31 30 30 28 29
19 20 19 19 20 20 20 21 22 23 25 26 27 28 30 28 23 23 23 24 23 22 24 25 25 26 27 28 29 31 33 35 38 39 36 37 34 36 38 34 34 34 33
Wind_Direction
166 161 139 157 182 189 162 80 253 0 345 35 33 25 75 70 50 61 63 79 85 88 98 121 140 152 165 173 176 183 191 198 205 213 220 221 218 224 233 242 248 251 253
159 151 157 176 170 160 358 247 336 359 21 354 12 68 62 63 36 62 75 75 86 95 98 104 115 128 143 149 152 161 173 185 196 207 217 225 232 237 244 250 253 253 253
155 163 157 167 161 165 208 280 348 348 324 282 170 111 81 62 52 90 82 85 90 96 101 106 111 118 122 123 125 132 142 156 171 185 200 217 231 241 248 253 254 254 252
160 159 166 161 150 193 197 287 334 40 18 131 289 113 90 97 80 57 95 92 90 98 100 105 108 109 113 116 118 120 126 135 155 173 190 211 231 246 250 249 248 247 250
169 166 174 162 165 201 182 234 52 17 32 235 40 99 91 92 112 97 117 93 91 93 99 101 101 99 99 98 99 104 107 113 119 122 127 139 154 221 238 249 250 250 249
181 176 185 167 185 191 198 134 149 283 342 95 113 52 100 109 128 113 152 80 90 85 94 102 95 101 100 93 86 89 97 102 107 106 102 102 96 83 62 36 335 255 244
185 191 181 176 191 197 241 144 65 318 27 71 81 60 330 303 158 140 140 102 100 85 88 113 76 100 107 103 103 97 92 96 101 104 98 91 91 89 82 73 68 69 87
185 195 196 199 203 175 203 204 134 263 44 50 56 52 266 258 114 159 143 150 110 106 101 108 69 70 104 103 102 103 95 87 91 95 96 94 91 86 82 75 71 72 74
183 208 209 218 207 208 213 216 154 202 221 35 49 76 99 142 130 54 72 172 23 39 179 91 100 94 74 88 83 92 94 88 87 90 90 86 84 88 83 78 74 71 70
189 214 209 221 230 219 210 203 156 177 227 88 298 69 82 129 193 179 93 242 277 1 114 65 52 90 109 76 92 82 87 90 81 71 73 73 71 70 68 65 62 61 60
186 196 222 239 230 250 230 175 188 190 193 217 298 338 69 147 150 103 126 29 24 332 193 194 129 150 107 97 83 98 112 107 78 52 60 61 63 66 64 61 53 42 33
187 184 185 198 216 247 242 211 201 224 217 203 235 258 136 26 115 92 80 34 25 5 168 189 180 131 112 152 153 113 131 119 117 82 69 88 77 69 61 46 31 15 358
205 198 189 193 217 227 215 231 223 221 228 217 213 240 231 218 173 227 232 265 276 318 249 218 128 70 14 227 216 249 183 117 160 149 131 117 116 97 62 36 22 5 341
202 201 215 194 208 225 230 236 247 229 236 232 217 205 206 222 226 271 236 252 329 295 267 249 264 11 339 291 266 283 265 209 149 169 173 183 201 254 281 322 338 334 335
234 215 198 209 220 229 229 241 257 250 246 271 221 240 226 231 207 229 222 237 248 250 278 268 301 336 326 318 293 271 251 218 235 237 234 243 255 274 295 311 317 316 307
229 238 228 254 237 241 241 231 254 261 271 264 261 298 221 237 228 241 259 249 266 264 243 260 252 271 291 279 283 280 273 255 254 258 256 265 266 277 293 298 299 299 299
226 244 246 222 231 247 244 242 255 261 262 272 269 276 248 253 277 272 257 258 256 254 247 240 277 281 278 281 270 260 275 272 275 269 264 267 268 275 285 290 294 300 299
228 239 253 249 235 245 250 257 259 266 265 263 268 270 265 267 277 289 289 285 267 272 258 261 274 271 262 271 281 270 259 272 275 271 268 270 273 279 285 290 294 298 297
226 237 240 248 254 255 254 252 247 250 257 260 260 265 271 267 262 259 274 278 265 262 262 264 271 282 279 275 268 276 275 261 264 275 277 274 275 279 282 287 289 290 291
223 230 240 243 244 250 258 261 259 252 257 263 264 259 260 268 269 263 270 274 272 260 259 260 260 267 274 274 278 262 273 274 271 271 275 275 276 278 282 282 283 286 286
223 225 237 240 246 250 259 263 262 262 261 261 260 263 265 263 262 267 269 267 282 269 260 256 255 257 267 270 266 272 267 279 276 278 275 273 274 279 282 284 287 287 287
238 242 242 248 254 255 250 251 259 259 267 267 261 260 261 260 264 266 261 252 255 267 261 261 265 266 268 275 269 269 274 274 272 278 276 270 272 279 281 283 285 284 285
258 250 251 252 253 258 259 258 261 263 265 261 265 253 254 258 262 265 269 271 270 270 266 264 267 266 262 266 265 266 271 270 268 269 273 276 276 275 277 281 282 283 283
261 257 257 255 254 257 260 257 259 259 259 261 260 256 260 261 261 264 264 261 262 261 271 273 271 268 266 265 269 274 272 273 274 273 274 275 275 276 275 279 279 276 278
257 255 252 254 255 256 261 262 263 264 266 264 265 263 264 263 253 254 259 264 262 263 267 266 267 266 267 271 272 274 279 279 277 276 274 274 275 278 275 273 276 276 275
252 251 253 255 257 261 262 265 268 273 271 265 262 258 254 259 248 256 257 261 265 265 267 268 268 268 270 269 268 269 272 272 274 274 277 277 279 280 281 279 278 277 275
Height
3207 3207 3210 3213 3217 3218 3220 3221 3220 3222 3221 3217 3217 3209 3215 3214 3215 3214 3214 3213 3211 3211 3212 3213 3213 3214 3216 3219 3219 3220 3221 3221 3222 3223 3225 3226 3227 3229 3230 3231 3232 3233 3235
3206 3207 3210 3214 3218 3220 3218 3218 3220 3221 3222 3220 3221 3217 3216 3213 3219 3216 3217 3216 3216 3217 3217 3216 3215 3216 3218 3219 3218 3218 3219 3220 3220 3221 3222 3224 3225 3226 3227 3228 3229 3230 3231
3206 3210 3211 3215 3218 3219 3217 3217 3221 3221 3221 3220 3221 3219 3215 3216 3216 3218 3219 3219 3220 3220 3219 3219 3219 3219 3218 3218 3218 3219 3218 3218 3218 3219 3221 3222 3223 3223 3224 3224 3225 3225 3226
3208 3210 3214 3217 3218 3217 3221 3222 3221 3220 3220 3222 3219 3217 3217 3216 3217 3220 3221 3221 3220 3220 3220 3220 3220 3219 3219 3218 3218 3218 3218 3218 3218 3219 3220 3220 3220 3221 3221 3221 3221 3222 3223
3209 3211 3215 3216 3217 3218 3221 3222 3222 3222 3223 3221 3220 3220 3219 3221 3218 3220 3221 3221 3222 3221 3221 3221 3221 3221 3220 3219 3218 3218 3218 3218 3219 3219 3218 3218 3218 3219 3219 3219 3218 3219 3219
3210 3212 3215 3216 3217 3218 3220 3220 3221 3220 3221 3217 3218 3218 3219 3221 3221 3220 3221 3222 3224 3224 3224 3223 3222 3221 3220 3219 3220 3220 3219 3219 3219 3219 3218 3218 3218 3218 3218 3217 3216 3216 3216
3211 3212 3216 3216 3215 3218 3218 3218 3219 3217 3217 3216 3214 3218 3220 3219 3220 3222 3224 3223 3222 3224 3223 3224 3223 3222 3221 3219 3219 3220 3221 3221 3220 3219 3219 3219 3218 3217 3217 3217 3216 3216 3215
3210 3212 3214 3215 3217 3218 3218 3218 3219 3215 3217 3217 3215 3216 3221 3220 3223 3223 3224 3222 3220 3221 3221 3222 3224 3224 3222 3220 3219 3219 3220 3221 3221 3220 3219 3220 3219 3218 3218 3218 3217 3217 3216
3209 3211 3213 3216 3217 3218 3217 3221 3217 3216 3216 3217 3217 3217 3218 3221 3222 3221 3219 3221 3219 3222 3221 3222 3221 3223 3223 3221 3219 3219 3219 3220 3222 3221 3220 3220 3220 3219 3219 3220 3219 3218 3217
3208 3209 3212 3214 3215 3217 3222 3222 3218 3219 3218 3221 3220 3217 3220 3222 3223 3224 3223 3223 3222 3219 3219 3221 3222 3222 3221 3222 3220 3220 3220 3221 3222 3222 3221 3221 3220 3220 3220 3220 3220 3219 3218
3206 3207 3210 3212 3213 3214 3215 3216 3219 3219 3220 3220 3219 3219 3221 3222 3222 3222 3222 3221 3221 3218 3218 3220 3220 3222 3220 3221 3221 3220 3221 3221 3222 3223 3222 3221 3221 3220 3220 3220 3220 3219 3219
3205 3206 3206 3210 3212 3213 3214 3216 3218 3220 3221 3222 3221 3219 3219 3217 3217 3219 3220 3221 3220 3218 3218 3219 3220 3220 3221 3220 3221 3221 3221 3220 3221 3222 3222 3221 3221 3221 3220 3220 3220 3219 3218
3204 3205 3205 3207 3210 3211 3213 3215 3217 3219 3219 3220 3220 3218 3218 3216 3216 3217 3218 3218 3219 3219 3218 3220 3220 3219 3219 3221 3220 3221 3220 3220 3221 3221 3221 3220 3220 3220 3220 3219 3218 3217 3217
3201 3202 3204 3206 3208 3211 3211 3213 3216 3216 3217 3217 3217 3219 3219 3216 3217 3217 3217 3218 3217 3218 3217 3220 3219 3216 3219 3220 3220 3219 3219 3219 3220 3220 3220 3220 3219 3219 3218 3218 3216 3215 3214
3199 3199 3201 3204 3207 3207 3209 3211 3213 3213 3214 3216 3217 3217 3218 3216 3217 3217 3217 3217 3217 3216 3216 3213 3215 3215 3218 3218 3218 3218 3217 3218 3218 3219 3218 3218 3218 3217 3217 3215 3215 3214 3213
3195 3198 3200 3203 3205 3206 3207 3207 3209 3210 3212 3213 3215 3216 3216 3214 3215 3215 3215 3215 3216 3215 3216 3214 3214 3215 3215 3216 3217 3215 3216 3216 3216 3216 3216 3216 3216 3216 3215 3214 3213 3212 3210
3194 3195 3198 3201 3201 3204 3204 3204 3205 3208 3209 3211 3212 3214 3215 3214 3212 3211 3213 3212 3211 3212 3212 3213 3212 3213 3212 3214 3215 3215 3215 3215 3215 3214 3214 3214 3214 3213 3213 3212 3210 3209 3208
3190 3192 3194 3197 3199 3200 3200 3201 3203 3205 3206 3208 3210 3211 3211 3211 3210 3209 3210 3211 3210 3209 3209 3208 3209 3209 3210 3211 3211 3210 3212 3212 3212 3212 3212 3211 3211 3210 3209 3208 3206 3205 3204
3185 3187 3190 3191 3193 3195 3196 3197 3198 3200 3200 3202 3205 3206 3207 3208 3208 3207 3206 3206 3207 3207 3206 3206 3206 3206 3206 3207 3206 3207 3208 3209 3209 3208 3208 3207 3206 3206 3204 3203 3202 3201 3199
3181 3182 3185 3187 3189 3191 3192 3193 3194 3195 3196 3197 3198 3200 3201 3202 3202 3202 3203 3202 3201 3202 3202 3203 3204 3203 3202 3203 3203 3204 3203 3204 3205 3204 3203 3202 3201 3200 3199 3198 3197 3195 3194
3177 3179 3181 3183 3185 3187 3188 3189 3190 3190 3191 3193 3193 3194 3195 3196 3196 3196 3197 3197 3196 3197 3198 3198 3199 3199 3199 3199 3199 3198 3199 3197 3197 3198 3197 3196 3195 3194 3193 3192 3191 3190 3188
3170 3175 3177 3178 3179 3180 3182 3183 3184 3186 3186 3187 3188 3188 3189 3189 3190 3190 3190 3190 3191 3192 3193 3193 3193 3194 3194 3194 3194 3193 3192 3191 3191 3191 3189 3190 3189 3188 3186 3186 3185 3182 3181
3165 3167 3170 3172 3173 3174 3176 3178 3179 3179 3180 3181 3181 3182 3183 3184 3184 3184 3184 3184 3184 3185 3186 3187 3187 3188 3187 3187 3186 3186 3185 3184 3184 3184 3182 3182 3182 3181 3180 3179 3178 3176 3174
3159 3161 3162 3164 3166 3167 3168 3169 3170 3171 3172 3173 3175 3176 3177 3178 3178 3178 3178 3178 3179 3180 3180 3180 3181 3181 3180 3180 3178 3177 3177 3175 3176 3175 3175 3173 3173 3172 3171 3171 3170 3169 3166
3152 3154 3156 3157 3159 3160 3161 3162 3163 3164 3164 3166 3167 3168 3168 3170 3172 3171 3171 3172 3174 3175 3175 3175 3174 3174 3174 3174 3173 3171 3170 3168 3165 3166 3165 3163 3163 3161 3161 3160 3160 3160 3158
3144 3147 3149 3150 3152 3154 3156 3156 3156 3156 3156 3157 3158 3158 3159 3161 3164 3165 3165 3165 3166 3167 3167 3167 3167 3167 3166 3166 3165 3162 3162 3159 3156 3154 3155 3152 3153 3150 3148 3150 3150 3149 3148